Terug naar catalogus

STARLINK-34003

ActiefCommunicatieVLEO
NORAD 63882·PAYLOAD·🇺🇸 United States

Gelanceerd May 10, 2025 vanaf Vandenberg Space Force Base

Loading…

Volgende Passages (komende 24 uur)

TLE

VersSource: CelesTrak SupGP

Epoch: Sep 14, 2026, 22:46 UTC

1 63882C 25094U   26257.94909722  .00016684  00000+0  35550-3 0  2573
2 63882  70.0005  53.6798 0003424 274.3696 247.3319 15.44755165    12

Volg STARLINK-34003 in realtime met AllMySat

Download on the App Store